Latest Coastal Weather Observations for Cape Otway

IDV60701

Issued at 4:31 am EDT Tuesday 31 March 2015 (issued every 10 minutes, with the page automatically refreshed every 10 minutes)

About coastal observations | Map of coastal stations | Coastal observations for VIC | Marine services | Other Formats
Station Details ID: 090015 Name: CAPE OTWAY LIGHTHOUSE Lat: -38.86 Lon: 143.51 Height: 82.0 m
Data from the previous 72 hours. | See also: Recent months at Cape Otway
Date/Time
EDT
Temp

°C
Wind Pressure Rain
since 9am
mm
Weather Cloud Vis
km
Sea
Height
m
Swell
Dir
 
Speed
knots
Gust
knots
hPa Trend Height
m
Period
s
Dir
31/04:30am 13.6 N 6 8 1025.5 - 0.0 - - - - - - -
31/04:00am 13.3 N 6 7 1025.6 - 0.0 - - - - - - -
31/03:30am 12.9 N 7 8 1025.7 - 0.0 - - - - - - -
31/03:00am 12.6 N 7 8 1025.9 - 0.0 - - - - - - -
31/02:30am 12.7 NNW 8 8 1025.9 - 0.0 - - - - - - -
31/02:00am 12.5 NNW 7 8 1025.9 - 0.0 - - - - - - -
31/01:30am 12.8 NW 6 7 1025.9 - 0.0 - - - - - - -
31/01:00am 13.5 NW 7 9 1026.1 - 0.0 - - - - - - -
31/12:30am 13.4 NNW 8 9 1026.3 - 0.0 - - - - - - -
31/12:00am 13.5 N 8 9 1026.4 - 0.0 - - - - - - -
 
Date/Time
EDT
Temp

°C
Wind Pressure Rain
since 9am
mm
Weather Cloud Vis
km
Sea
Height
m
Swell
Dir
 
Speed
knots
Gust
knots
hPa Trend Height
m
Period
s
Dir
30/11:30pm 14.0 NW 7 9 1026.5 - 0.0 - - - - - - -
30/11:00pm 14.3 NW 7 8 1026.4 - 0.0 - - - - - - -
30/10:30pm 13.8 NNW 8 9 1026.4 - 0.0 - - - - - - -
30/10:00pm 14.1 NNW 7 9 1026.3 - 0.0 - - - - - - -
30/09:30pm 14.2 NNW 8 9 1026.2 - 0.0 - - - - - - -
30/09:00pm 14.3 NNW 7 9 1026.2 - 0.0 - - - - - - -
30/08:30pm 14.8 NNW 7 9 1026.0 - 0.0 - - - - - - -
30/08:00pm 15.5 NW 6 8 1025.9 - 0.0 - - - - - - -
30/07:30pm 15.9 W 8 10 1025.7 - 0.0 - - - - - - -
30/07:00pm 16.3 W 10 13 1025.5 - 0.0 - - - - - - -
30/06:30pm 16.9 W 11 15 1025.1 - 0.0 - - - - - - -
30/06:00pm 17.9 WNW 8 13 1024.6 - 0.0 - - - - - - -
30/05:30pm 18.1 W 8 12 1024.4 - 0.0 - - - - - - -
30/05:00pm 17.8 W 10 14 1024.3 - 0.0 - - - - - - -
30/04:30pm 18.3 W 12 16 1024.2 - 0.0 - - - - - - -
30/04:00pm 18.3 W 10 15 1024.2 - 0.0 - - - - - - -
30/03:30pm 18.1 W 12 15 1024.3 - 0.0 - - - - - - -
30/03:00pm 18.5 W 11 15 1024.3 - 0.0 - - - - - - -
30/02:30pm 18.3 W 10 14 1024.5 - 0.0 - - - - - - -
30/02:00pm 17.6 W 12 15 1024.7 - 0.0 - - - - - - -
30/01:30pm 17.6 W 11 15 1024.9 - 0.0 - - - - - - -
30/01:00pm 17.7 W 10 13 1025.0 - 0.0 - - - - - - -
30/12:30pm 18.1 W 8 11 1025.0 - 0.0 - - - - - - -
30/12:00pm 17.5 W 9 14 1025.0 - 0.0 - - - - - - -
30/11:30am 18.3 W 8 11 1025.1 - 0.0 - - - - - - -
30/11:00am 18.1 NW 8 11 1024.9 - 0.0 - - - - - - -
30/10:30am 17.2 NW 8 13 1024.8 - 0.0 - - - - - - -
30/10:00am 16.5 NW 8 11 1024.7 - 0.0 - - - - - - -
30/09:30am 16.0 WNW 6 9 1024.5 - 0.0 - - - - - - -
30/09:00am 14.9 NNW 8 10 1024.0 - 0.0 - - - - - - -
30/08:30am 13.8 NNW 9 12 1023.6 - 0.0 - - - - - - -
30/08:00am 13.2 NNW 10 13 1023.4 - 0.0 - - - - - - -
30/07:30am 12.9 N 10 13 1023.1 - 0.0 - - - - - - -
30/07:00am 12.9 NNW 9 11 1023.1 - 0.0 - - - - - - -
30/06:30am 12.9 NNW 9 12 1022.9 - 0.0 - - - - - - -
30/06:00am 13.3 NNW 9 11 1022.7 - 0.0 - - - - - - -
30/05:30am 13.5 NNW 8 10 1022.6 - 0.0 - - - - - - -
30/05:00am 13.3 NNW 9 12 1022.4 - 0.0 - - - - - - -
30/04:30am 13.2 NNW 8 10 1022.5 - 0.0 - - - - - - -
30/04:00am 13.0 NNW 9 11 1022.5 - 0.0 - - - - - - -
30/03:30am 13.2 N 9 11 1022.6 - 0.0 - - - - - - -
30/03:00am 13.1 NNW 8 11 1022.7 - 0.0 - - - - - - -
30/02:30am 13.0 NNW 8 10 1023.0 - 0.0 - - - - - - -
30/02:00am 13.1 N 8 9 1022.9 - 0.0 - - - - - - -
30/01:30am 13.2 NNW 8 10 1023.0 - 0.0 - - - - - - -
30/01:00am 13.1 NNW 8 10 1023.1 - 0.0 - - - - - - -
30/12:30am 13.0 NNW 8 10 1023.0 - 0.0 - - - - - - -
30/12:00am 13.4 NW 8 9 1023.0 - 0.0 - - - - - - -
 
Date/Time
EDT
Temp

°C
Wind Pressure Rain
since 9am
mm
Weather Cloud Vis
km
Sea
Height
m
Swell
Dir
 
Speed
knots
Gust
knots
hPa Trend Height
m
Period
s
Dir
29/11:30pm 13.4 NW 7 9 1023.2 - 0.0 - - - - - - -
29/11:00pm 13.2 NW 8 9 1023.3 - 0.0 - - - - - - -
29/10:30pm 12.9 NNW 8 9 1023.4 - 0.0 - - - - - - -
29/10:00pm 13.0 NNW 8 9 1023.3 - 0.0 - - - - - - -
29/09:30pm 13.7 NNW 7 8 1023.1 - 0.0 - - - - - - -
29/09:00pm 15.6 WNW 8 10 1022.8 - 0.0 - - - - - - -
29/08:30pm 15.7 WNW 8 12 1022.7 - 0.0 - - - - - - -
29/08:00pm 15.7 WNW 9 11 1022.7 - 0.0 - - - - - - -
29/07:30pm 15.9 W 8 11 1022.4 - 0.0 - - - - - - -
29/07:00pm 16.5 W 11 14 1022.1 - 0.0 - - - - - - -
29/06:30pm 16.9 W 10 14 1021.7 - 0.0 - - - - - - -
29/06:00pm 17.3 W 12 15 1021.4 - 0.0 - - - - - - -
29/05:30pm 17.4 W 12 16 1021.5 - 0.0 - - - - - - -
29/05:00pm 17.6 W 11 15 1021.5 - 0.0 - - - - - - -
29/04:30pm 17.5 W 12 16 1021.4 - 0.0 - - - - - - -
29/04:00pm 17.8 W 13 18 1021.4 - 0.0 - - - - - - -
29/03:30pm 17.7 W 15 20 1021.5 - 0.0 - - - - - - -
29/03:00pm 17.4 W 16 21 1021.4 - 0.0 - - - - - - -
29/02:30pm 17.7 W 15 20 1021.5 - 0.0 - - - - - - -
29/02:00pm 17.7 W 14 20 1021.7 - 0.0 - - - - - - -
29/01:30pm 17.5 W 13 19 1021.8 - 0.0 - - - - - - -
29/01:00pm 18.1 WNW 12 17 1022.0 - 0.0 - - - - - - -
29/12:30pm 17.7 WNW 13 17 1022.0 - 0.0 - - - - - - -
29/12:00pm 17.7 WNW 13 18 1022.0 - 0.0 - - - - - - -
29/11:30am 17.4 WNW 12 17 1022.2 - 0.0 - - - - - - -
29/11:00am 16.9 WNW 10 15 1022.2 - 0.0 - - - - - - -
29/10:30am 16.5 WNW 11 17 1022.2 - 0.0 - - - - - - -
29/10:00am 16.0 NW 11 16 1022.1 - 0.0 - - - - - - -
29/09:30am 15.1 NW 9 14 1021.9 - 0.0 - - - - - - -
29/09:00am 14.4 NW 9 13 1021.6 - 0.0 - - - - - - -
29/08:30am 12.9 NNW 9 12 1021.6 - 0.0 - - - - - - -
29/08:00am 11.7 N 10 12 1021.4 - 0.0 - - - - - - -
29/07:30am 11.5 NNW 9 12 1021.3 - 0.0 - - - - - - -
29/07:00am 12.0 NNW 8 11 1021.4 - 0.0 - - - - - - -
29/06:30am 11.9 NW 8 10 1021.2 - 0.0 - - - - - - -
29/06:00am 10.8 NW 7 8 1020.8 - 0.0 - - - - - - -
29/05:30am 10.7 NW 7 8 1020.7 - 0.0 - - - - - - -
29/05:00am 11.5 NW 6 8 1020.5 - 0.0 - - - - - - -
29/04:30am 11.0 NNW 7 9 1019.9 - 0.0 - - - - - - -
29/04:00am 11.4 NNW 7 9 1020.0 - 0.0 - - - - - - -
29/03:30am 11.4 NNW 8 9 1020.2 - 0.0 - - - - - - -
29/03:00am 11.4 NNW 8 9 1020.2 - 0.0 - - - - - - -
29/02:30am 11.5 NNW 8 10 1020.5 - 0.0 - - - - - - -
29/02:00am 11.4 NNW 8 9 1020.7 - 0.0 - - - - - - -
29/01:30am 11.7 NNW 8 9 1021.1 - 0.0 - - - - - - -
29/01:00am 11.9 NNW 8 10 1021.4 - 0.0 - - - - - - -
29/12:30am 12.1 NNW 8 11 1021.6 - 0.0 - - - - - - -
29/12:00am 11.8 NNW 7 9 1021.8 - 0.0 - - - - - - -
 
Date/Time
EDT
Temp

°C
Wind Pressure Rain
since 9am
mm
Weather Cloud Vis
km
Sea
Height
m
Swell
Dir
 
Speed
knots
Gust
knots
hPa Trend Height
m
Period
s
Dir
28/11:30pm 12.6 NNW 6 7 1022.1 - 0.0 - - - - - - -
28/11:00pm 13.0 NNW 6 7 1022.4 - 0.0 - - - - - - -
28/10:30pm 13.0 NNW 6 7 1022.4 - 0.0 - - - - - - -
28/10:00pm 12.7 NNW 6 7 1022.5 - 0.0 - - - - - - -
28/09:30pm 13.1 N 6 7 1022.5 - 0.0 - - - - - - -
28/09:00pm 13.2 NNW 5 6 1022.4 - 0.0 - - - - - - -
28/08:30pm 13.4 N 4 5 1022.4 - 0.0 - - - - - - -
28/08:00pm 13.7 NNW 4 6 1022.3 - 0.0 - - - - - - -
28/07:30pm 14.0 WNW 6 9 1022.2 - 0.0 - - - - - - -
28/07:00pm 13.8 WNW 7 10 1022.3 - 0.0 - - - - - - -
28/06:30pm 13.9 W 7 9 1022.2 - 0.0 - - - - - - -
28/06:00pm 14.0 W 7 10 1022.2 - 0.0 - - - - - - -
28/05:30pm 14.0 W 7 11 1022.5 - 0.0 - - - - - - -
28/05:00pm 13.9 W 10 13 1022.8 - 0.0 - - - - - - -
28/04:30pm 14.2 W 10 14 1023.1 - 0.0 - - - - - - -
28/04:00pm 13.7 W 8 12 1023.2 - 0.0 - - - - - - -
28/03:30pm 13.6 W 8 13 1023.5 - 0.0 - - - - - - -
28/03:00pm 13.4 W 11 16 1023.5 - 0.0 - - - - - - -
28/02:30pm 13.8 W 11 16 1023.7 - 0.0 - - - - - - -
28/02:00pm 13.9 W 10 15 1024.0 - 0.0 - - - - - - -
28/01:30pm 14.2 WNW 10 14 1024.5 - 0.0 - - - - - - -
28/01:00pm 16.0 WNW 9 15 1024.6 - 0.0 - - - - - - -
28/12:30pm 14.9 W 10 15 1025.0 - 0.0 - - - - - - -
28/12:00pm 15.6 W 8 13 1025.1 - 0.0 - - - - - - -
28/11:30am 15.1 W 9 12 1025.4 - 0.0 - - - - - - -
28/11:00am 14.8 WNW 9 13 1025.5 - 0.0 - - - - - - -
28/10:30am 13.6 NW 9 12 1025.7 - 0.0 - - - - - - -
28/10:00am 13.1 NNW 10 14 1025.8 - 0.0 - - - - - - -
28/09:30am 12.2 NNW 8 12 1025.7 - 0.0 - - - - - - -
28/09:00am 12.4 NW 8 12 1025.5 - 0.2 - - - - - - -
28/08:30am 12.1 NNW 6 9 1025.1 - 0.0 - - - - - - -
28/08:00am 11.6 NNW 8 10 1025.0 - 0.0 - - - - - - -
28/07:30am 12.1 N 7 12 1024.8 - 0.0 - - - - - - -
28/07:00am 13.2 W 8 11 1024.6 - 0.0 - - - - - - -
28/06:30am 12.6 WSW 9 14 1024.4 - 0.0 - - - - - - -
28/06:00am 12.8 WSW 11 15 1024.2 - 0.0 - - - - - - -
28/05:30am 13.0 WSW 6 9 1024.3 - 0.0 - - - - - - -
28/05:00am 13.0 WSW 9 13 1024.3 - 0.0 - - - - - - -

Other Formats:

Comma delimited format used in spreadsheet applications
http://www.bom.gov.au/fwo/IDV60701/IDV60701.94842.axf

JavaScript Object Notation format (JSON) in row-major order
http://www.bom.gov.au/fwo/IDV60701/IDV60701.94842.json